Kaktovik, AK

7:47 PM AKST on February 08, 2016 (GMT -0900)
Barter Island LRRS

Weather History for PABA - September, 2012

Change the Weather History Date:

Monday, September 3, 2012

  Actual Average Record
Temperature  
Mean Temperature 41 °F -  
Max Temperature 42 °F 39 °F 50 °F (2006)
Min Temperature 39 °F 32 °F 21 °F (1998)
Degree Days  
Heating Degree Days 24    
Moisture  
Dew Point 41 °F    
Average Humidity 96    
Maximum Humidity 100    
Minimum Humidity 86    
Precipitation  
Precipitation 0.00 in - - ()
Sea Level Pressure  
Sea Level Pressure 29.68 in    
Wind  
Wind Speed 19 mph (East)    
Max Wind Speed 24 mph    
Max Gust Speed -    
Visibility 2 miles    
Events Fog , Rain    
Averages and records for this station are not official NWS values.
T = Trace of Precipitation, MM = Missing Value Source: NWS Daily Summary

Daily Weather History Graph

Daily Weather History Graph

Search for Another Location

Airport or City:

Trip Planner

Search our weather history database for the weather conditions in past years. The results will help you decide how hot, cold, wet, or windy it might be!

Date:

Astronomy

Sep. 03, 2012 Rise Set
Actual Time 6:00 AM AKDT 9:03 PM AKDT
Civil Twilight 4:47 AM AKDT 10:15 PM AKDT
Nautical Twilight 2:27 AM AKDT 12:24 AM AKDT
Astronomical Twilight Sun does not rise Sun does not rise
Moon 7:42 PM AKDT (9/3) 11:53 AM AKDT (9/3)
Length of Visible Light 17h 28m
Length of Day
15h 03m
Waning Gibbous, 89% of the Moon is Illuminated
Sep 3
Waning Gibbous
Sep 8
Last Quarter
Sep 15
New
Sep 22
First Quarter
Sep 29
Full

Hourly Weather History & Observations

Time (AKDT) Temp. Windchill Dew Point Humidity Pressure Visibility Wind Dir Wind Speed Gust Speed Precip Events Conditions
12:01 AM 41.0 °F 32.8 °F 37.0 °F 86% 29.80 in 10.0 mi East 16.1 mph - N/A   Overcast
1:01 AM 41.0 °F 32.5 °F 37.0 °F 86% 29.80 in 10.0 mi East 17.3 mph - N/A   Overcast
2:01 AM 41.0 °F 32.8 °F 37.9 °F 89% 29.79 in 9.0 mi East 16.1 mph - 0.00 in Rain Light Rain
2:19 AM 41.0 °F 33.1 °F 37.4 °F 87% 29.79 in 9.0 mi East 15.0 mph - 0.00 in   Overcast
3:01 AM 41.0 °F 33.1 °F 37.9 °F 89% 29.78 in 10.0 mi East 15.0 mph - 0.00 in   Overcast
3:22 AM 39.2 °F 30.2 °F 37.4 °F 93% 29.78 in 9.0 mi East 17.3 mph - N/A   Overcast
3:42 AM 39.2 °F 30.2 °F 37.4 °F 93% 29.78 in 9.0 mi East 17.3 mph - N/A   Overcast
4:01 AM 39.9 °F 30.2 °F 37.9 °F 93% 29.78 in 10.0 mi East 20.7 mph - N/A   Overcast
5:01 AM 39.9 °F 31.4 °F 37.9 °F 93% 29.78 in 8.0 mi East 16.1 mph - N/A   Overcast
5:39 AM 41.0 °F 31.9 °F 39.2 °F 93% 29.77 in 2.0 mi East 19.6 mph - N/A   Overcast
5:52 AM 39.2 °F 29.8 °F 39.2 °F 100% 29.77 in 1.5 mi East 18.4 mph - N/A   Overcast
6:01 AM 41.0 °F 32.2 °F 39.9 °F 96% 29.77 in 1.5 mi East 18.4 mph - N/A   Overcast
6:18 AM 41.0 °F 31.9 °F 39.2 °F 93% 29.76 in 1.2 mi East 19.6 mph - N/A   Overcast
7:01 AM 39.9 °F 30.5 °F 39.9 °F 100% 29.75 in 1.2 mi East 19.6 mph - N/A   Overcast
7:27 AM 41.0 °F 31.9 °F 39.2 °F 93% 29.75 in 2.0 mi East 19.6 mph - N/A   Overcast
7:34 AM 41.0 °F 31.4 °F 39.2 °F 93% 29.75 in 1.5 mi East 21.9 mph - N/A   Overcast
7:44 AM 41.0 °F 31.1 °F 39.2 °F 93% 29.74 in 1.5 mi East 23.0 mph - N/A   Overcast
8:01 AM 41.0 °F 31.6 °F 39.9 °F 96% 29.74 in 1.2 mi East 20.7 mph - N/A   Overcast
8:23 AM 39.2 °F 29.3 °F 39.2 °F 100% 29.74 in 1.0 mi East 20.7 mph - N/A   Overcast
8:36 AM 41.0 °F 31.4 °F 39.2 °F 93% 29.73 in 1.2 mi East 21.9 mph - N/A   Overcast
9:01 AM 41.0 °F 31.6 °F 39.2 °F 93% 29.73 in 1.2 mi East 20.7 mph - N/A   Overcast
9:15 AM 41.0 °F 31.6 °F 39.2 °F 93% 29.73 in 1.2 mi East 20.7 mph - N/A   Overcast
9:42 AM 41.0 °F 31.4 °F 39.2 °F 93% 29.72 in 1.0 mi East 21.9 mph - N/A   Overcast
10:01 AM 41.0 °F 31.6 °F 39.9 °F 96% 29.72 in 1.0 mi East 20.7 mph - N/A   Overcast
10:44 AM 41.0 °F 31.6 °F 41.0 °F 100% 29.71 in 0.8 mi East 20.7 mph - N/A   Overcast
10:51 AM 41.0 °F 31.9 °F 41.0 °F 100% 29.71 in 1.0 mi East 19.6 mph - N/A   Overcast
11:01 AM 41.0 °F 32.2 °F 41.0 °F 100% 29.71 in 1.0 mi East 18.4 mph - N/A   Overcast
11:52 AM 41.0 °F 31.6 °F 41.0 °F 100% 29.70 in 1.0 mi East 20.7 mph - N/A   Overcast
12:01 PM 41.0 °F 31.9 °F 41.0 °F 100% 29.70 in 0.8 mi East 19.6 mph - N/A   Overcast
12:07 PM 41.0 °F 31.4 °F 41.0 °F 100% 29.70 in 0.8 mi East 21.9 mph - N/A   Overcast
12:17 PM 41.0 °F 31.4 °F 41.0 °F 100% 29.69 in 1.0 mi East 21.9 mph - N/A   Overcast
12:48 PM 41.0 °F 31.1 °F 41.0 °F 100% 29.68 in 0.8 mi East 23.0 mph - N/A   Overcast
1:01 PM 41.0 °F 31.4 °F 41.0 °F 100% 29.68 in 0.8 mi East 21.9 mph - N/A   Overcast
1:20 PM 41.0 °F 31.4 °F 41.0 °F 100% 29.68 in 0.5 mi East 21.9 mph - N/A Fog Fog
1:27 PM 41.0 °F 31.4 °F 41.0 °F 100% 29.68 in 0.8 mi ENE 21.9 mph - N/A   Overcast
1:45 PM 42.8 °F 33.5 °F 41.0 °F 93% 29.67 in 1.2 mi East 23.0 mph - N/A   Overcast
2:01 PM 41.0 °F 31.4 °F 41.0 °F 100% 29.68 in 1.2 mi East 21.9 mph - N/A   Overcast
2:13 PM 42.8 °F 34.0 °F 41.0 °F 93% 29.67 in 1.0 mi East 20.7 mph - N/A   Overcast
2:23 PM 42.8 °F 34.0 °F 41.0 °F 93% 29.67 in 0.5 mi East 20.7 mph - N/A Fog Fog
2:45 PM 41.0 °F 32.2 °F 41.0 °F 100% 29.67 in 0.2 mi East 18.4 mph - N/A Fog Fog
3:01 PM 41.0 °F 31.9 °F 41.0 °F 100% 29.66 in 0.2 mi East 19.6 mph - N/A Fog Fog
3:28 PM 42.8 °F 34.5 °F 41.0 °F 93% 29.65 in 0.2 mi East 18.4 mph - N/A Fog Fog
3:34 PM 42.8 °F 34.8 °F 41.0 °F 93% 29.65 in 0.8 mi East 17.3 mph - N/A   Overcast
3:37 PM 42.8 °F 34.5 °F 42.8 °F 100% 29.65 in 1.2 mi East 18.4 mph - N/A   Overcast
3:46 PM 42.8 °F 34.5 °F 42.8 °F 100% 29.65 in 3.0 mi East 18.4 mph - N/A   Mostly Cloudy
3:54 PM 42.8 °F 34.8 °F 42.8 °F 100% 29.65 in 3.0 mi East 17.3 mph - N/A   Mostly Cloudy
3:59 PM 42.8 °F 34.8 °F 42.8 °F 100% 29.65 in 3.0 mi East 17.3 mph - N/A   Scattered Clouds
4:01 PM 42.1 °F 33.6 °F 42.1 °F 100% 29.65 in 4.0 mi East 18.4 mph - N/A   Scattered Clouds
4:08 PM 42.8 °F 34.5 °F 42.8 °F 100% 29.65 in 4.0 mi East 18.4 mph - N/A   Mostly Cloudy
4:22 PM 42.8 °F 34.5 °F 42.8 °F 100% 29.64 in 4.0 mi East 18.4 mph - N/A   Mostly Cloudy
4:36 PM 42.8 °F 34.8 °F 42.8 °F 100% 29.64 in 1.8 mi East 17.3 mph - N/A   Overcast
4:44 PM 42.8 °F 34.8 °F 41.0 °F 93% 29.64 in 1.5 mi East 17.3 mph - N/A   Overcast
4:48 PM 42.8 °F 35.1 °F 41.0 °F 93% 29.64 in 0.8 mi East 16.1 mph - N/A   Overcast
4:56 PM 41.0 °F 32.8 °F 41.0 °F 100% 29.64 in 0.5 mi East 16.1 mph - N/A Fog Fog
5:01 PM 42.8 °F 35.1 °F 41.0 °F 93% 29.64 in 1.0 mi East 16.1 mph - N/A   Overcast
5:08 PM 42.8 °F 35.1 °F 41.0 °F 93% 29.63 in 1.5 mi East 16.1 mph - N/A   Overcast
5:37 PM 42.8 °F 34.8 °F 41.0 °F 93% 29.62 in 0.5 mi East 17.3 mph - N/A Fog Fog
6:01 PM 42.1 °F 33.9 °F 42.1 °F 100% 29.62 in 0.5 mi East 17.3 mph - N/A Fog Fog
6:24 PM 42.8 °F 34.8 °F 42.8 °F 100% 29.61 in 0.2 mi East 17.3 mph - N/A Fog Fog
7:01 PM 42.1 °F 33.9 °F 42.1 °F 100% 29.60 in 0.2 mi East 17.3 mph - N/A Fog Fog
7:59 PM 42.8 °F 33.5 °F 42.8 °F 100% 29.58 in 0.5 mi East 23.0 mph - N/A Fog Fog
8:01 PM 43.0 °F 34.0 °F 42.1 °F 97% 29.58 in 0.5 mi East 21.9 mph - N/A Fog Fog
8:39 PM 42.8 °F 33.3 °F 42.8 °F 100% 29.57 in 0.8 mi East 24.2 mph - N/A   Overcast
8:43 PM 42.8 °F 33.5 °F 42.8 °F 100% 29.57 in 1.2 mi East 23.0 mph - N/A   Overcast
8:56 PM 42.8 °F 33.5 °F 42.8 °F 100% 29.57 in 2.0 mi East 23.0 mph - N/A   Overcast
9:01 PM 43.0 °F 33.8 °F 42.1 °F 97% 29.57 in 2.0 mi East 23.0 mph - N/A   Overcast
9:41 PM 42.8 °F 34.3 °F 42.8 °F 100% 29.56 in 3.0 mi ENE 19.6 mph - N/A   Overcast
10:01 PM 42.1 °F 33.1 °F 42.1 °F 100% 29.56 in 4.0 mi East 20.7 mph - N/A   Overcast
11:01 PM 43.0 °F 34.5 °F 42.1 °F 97% 29.55 in 4.0 mi East 19.6 mph - N/A   Overcast